Ogden, UT

9:22 AM MST on February 20, 2018 (GMT -0700)
Ogden-Hinckley

Weather History for KOGD - December, 2012

Change the Weather History Date:

Friday, December 21, 2012

  Actual Average Record
Temperature  
Mean Temperature 31 °F -  
Max Temperature 41 °F 35 °F 62 °F (1969)
Min Temperature 21 °F 17 °F -6 °F (1930)
Degree Days  
Heating Degree Days 34    
Moisture  
Dew Point 14 °F    
Average Humidity 58    
Maximum Humidity 78    
Minimum Humidity 32    
Precipitation  
Precipitation 0.00 in - - ()
Sea Level Pressure  
Sea Level Pressure 30.17 in    
Wind  
Wind Speed 6 mph (South)    
Max Wind Speed 12 mph    
Max Gust Speed -    
Visibility 10 miles    
Events      
Averages and records for this station are not official NWS values.
T = Trace of Precipitation, MM = Missing Value Source: NWS Daily Summary

Daily Weather History Graph

Daily Weather History Graph

Search for Another Location

Airport or City:

Trip Planner

Search our weather history database for the weather conditions in past years. The results will help you decide how hot, cold, wet, or windy it might be!

Date:

Astronomy

Dec. 21, 2012 Rise Set
Actual Time 7:50 AM MST 5:02 PM MST
Civil Twilight 7:19 AM MST 5:33 PM MST
Nautical Twilight 6:44 AM MST 6:08 PM MST
Astronomical Twilight 6:10 AM MST 6:42 PM MST
Moon 12:53 PM MST (12/21) 1:38 AM MST (12/21)
Length of Visible Light 10h 14m
Length of Day
9h 12m
Waxing Gibbous, 65% of the Moon is Illuminated
Dec 21
Waxing Gibbous
Dec 28
Full
Jan 4
Last Quarter
Jan 11
New
Jan 18
First Quarter

Hourly Weather History & Observations

Time (MST) Temp. Windchill Dew Point Humidity Pressure Visibility Wind Dir Wind Speed Gust Speed Precip Events Conditions
12:53 AM 21.0 °F 14.6 °F 12.0 °F 68% 30.29 in 10.0 mi South 4.6 mph - N/A   Clear
1:53 AM 21.9 °F 15.7 °F 10.9 °F 63% 30.26 in 10.0 mi South 4.6 mph - N/A   Clear
2:53 AM 21.9 °F 11.7 °F 10.9 °F 63% 30.24 in 10.0 mi SSE 9.2 mph - N/A   Clear
3:53 AM 23.0 °F 11.7 °F 10.9 °F 60% 30.22 in 10.0 mi SSE 11.5 mph - N/A   Clear
4:53 AM 21.9 °F 13.4 °F 10.0 °F 60% 30.23 in 10.0 mi South 6.9 mph - N/A   Clear
5:53 AM 21.9 °F 13.4 °F 10.0 °F 60% 30.24 in 10.0 mi South 6.9 mph - N/A   Clear
6:53 AM 21.0 °F 11.4 °F 10.0 °F 63% 30.24 in 10.0 mi South 8.1 mph - N/A   Clear
7:53 AM 21.0 °F 12.4 °F 10.0 °F 63% 30.23 in 10.0 mi South 6.9 mph - N/A   Clear
8:53 AM 24.1 °F 16.0 °F 10.0 °F 55% 30.22 in 10.0 mi SSE 6.9 mph - N/A   Clear
9:53 AM 28.0 °F 21.7 °F 10.9 °F 49% 30.22 in 10.0 mi SSE 5.8 mph - N/A   Clear
10:53 AM 33.1 °F 30.0 °F 10.9 °F 40% 30.20 in 10.0 mi SSE 3.5 mph - N/A   Clear
11:53 AM 37.0 °F 33.3 °F 12.9 °F 37% 30.16 in 10.0 mi South 4.6 mph - N/A   Clear
12:53 PM 37.9 °F 34.4 °F 12.9 °F 36% 30.12 in 10.0 mi South 4.6 mph - N/A   Clear
1:53 PM 39.9 °F 37.8 °F 12.9 °F 33% 30.10 in 10.0 mi SSW 3.5 mph - N/A   Clear
2:53 PM 41.0 °F 37.1 °F 12.9 °F 32% 30.07 in 10.0 mi South 5.8 mph - N/A   Clear
3:53 PM 39.0 °F 34.0 °F 12.9 °F 34% 30.08 in 10.0 mi South 6.9 mph - N/A   Clear
4:53 PM 30.9 °F 24.3 °F 21.9 °F 69% 30.11 in 10.0 mi NW 6.9 mph - N/A   Clear
5:53 PM 28.9 °F - 19.0 °F 67% 30.12 in 10.0 mi Calm Calm - N/A   Clear
6:53 PM 27.0 °F 23.0 °F 21.0 °F 78% 30.13 in 10.0 mi South 3.5 mph - N/A   Clear
7:53 PM 25.0 °F 19.3 °F 18.0 °F 75% 30.15 in 10.0 mi NW 4.6 mph - N/A   Clear
8:53 PM 26.1 °F 21.9 °F 19.0 °F 75% 30.14 in 10.0 mi WNW 3.5 mph - N/A   Clear
9:53 PM 27.0 °F 23.0 °F 19.9 °F 75% 30.11 in 10.0 mi SE 3.5 mph - N/A   Clear
10:53 PM 28.0 °F 24.2 °F 19.0 °F 69% 30.10 in 10.0 mi SSE 3.5 mph - N/A   Clear
11:53 PM 28.0 °F 20.8 °F 18.0 °F 66% 30.08 in 10.0 mi SSE 6.9 mph - N/A   Clear